Temperature
15 15 15 15 15 15 15 15 15 15 15 15 15 15 15 15 15 14 15 15 15 15 15 15 15 15 15 15 15 15 15 15 15 15 15 15 15 15 15 15 15 15 15
15 15 15 15 15 15 15 15 15 15 15 15 15 15 15 15 14 14 14 15 15 15 15 15 15 15 15 15 15 15 15 15 15 15 15 15 15 15 15 15 15 15 15
15 15 15 15 14 14 15 15 15 15 15 14 14 14 15 14 14 14 14 14 14 15 15 15 14 15 15 15 15 15 15 15 15 15 15 15 15 15 15 15 15 15 15
14 14 14 14 14 14 14 14 14 14 14 14 14 14 14 14 14 14 14 14 14 14 14 14 14 14 14 15 14 14 14 14 14 14 14 14 14 15 14 14 14 14 15
14 14 14 14 14 14 14 14 14 14 14 14 14 14 14 14 14 14 14 14 14 14 14 14 14 14 14 14 14 14 14 14 14 14 14 14 14 14 14 14 14 14 14
14 14 14 14 14 14 14 14 14 14 14 14 14 14 14 14 14 14 14 14 14 14 14 14 14 14 14 14 14 14 14 14 14 14 14 14 14 14 14 14 14 14 14
14 14 14 14 14 14 14 13 14 14 14 14 14 14 14 14 14 14 14 14 14 14 14 14 13 13 13 14 14 14 14 14 14 14 14 14 14 14 14 14 14 14 14
14 14 14 14 14 14 14 14 13 13 13 13 14 14 14 14 14 14 13 13 13 13 13 13 13 13 13 13 14 14 14 14 14 14 14 14 14 14 14 14 14 14 14
14 14 14 14 14 14 13 13 13 13 13 13 13 13 14 15 14 13 13 13 13 13 13 13 13 13 13 13 13 13 14 14 14 14 14 14 14 13 13 13 13 13 13
13 13 13 13 13 13 13 13 13 13 13 13 13 13 13 13 14 14 13 13 13 13 13 13 13 13 13 13 13 13 13 14 14 14 13 13 13 13 13 13 13 13 13
13 13 13 13 13 13 13 13 13 13 13 13 13 13 13 13 13 13 13 13 13 13 13 13 12 13 13 13 13 13 13 13 13 13 13 13 13 13 13 13 13 13 13
13 13 13 13 13 13 13 13 13 13 13 13 13 13 12 12 12 13 13 13 13 12 12 12 12 12 12 12 12 13 13 13 13 13 13 13 13 13 13 13 13 13 12
13 13 13 13 13 12 12 12 12 12 12 12 12 12 12 12 12 12 12 12 12 12 12 12 12 12 12 12 12 12 12 12 13 13 13 13 13 13 13 13 13 12 12
13 12 12 12 12 12 12 12 12 12 12 12 12 12 12 12 12 12 12 12 12 12 12 12 12 12 12 12 12 12 12 12 12 12 12 12 12 12 13 12 12 12 12
12 12 12 12 12 12 12 12 12 12 12 12 12 12 12 12 12 12 11 11 12 12 12 12 11 11 12 12 12 11 11 12 12 12 12 12 12 12 12 12 12 12 12
12 12 12 11 11 12 12 11 11 11 11 11 11 11 11 11 11 11 11 11 11 11 12 12 11 11 11 11 11 11 11 12 12 12 12 12 12 12 12 12 12 12 12
12 12 11 11 11 11 11 11 11 11 11 11 11 11 11 11 11 11 11 11 11 11 11 11 11 11 11 11 11 11 11 11 11 11 11 11 11 11 12 11 11 11 11
11 11 11 11 11 11 11 10 10 10 10 10 10 10 11 11 11 11 11 11 11 10 10 10 10 10 10 10 10 10 11 11 10 11 11 11 11 11 11 11 11 11 11
11 11 10 10 10 10 10 10 10 10 10 10 9 10 10 10 10 10 10 10 10 10 10 10 10 10 10 10 10 10 10 10 10 10 11 11 11 11 11 11 11 11 11
10 10 10 10 10 10 10 9 9 9 9 9 9 9 9 9 10 10 10 10 10 10 10 10 9 9 9 10 9 9 10 10 10 10 10 10 10 11 11 11 11 11 11
10 9 9 9 9 9 9 9 9 9 9 9 9 9 9 9 9 9 9 9 9 9 9 9 9 9 9 9 9 9 9 9 9 9 9 9 10 10 10 10 10 10 10
9 9 9 9 9 9 9 9 8 8 8 8 8 8 8 8 9 9 9 9 9 9 9 9 9 9 9 9 9 9 9 9 9 9 9 9 9 9 9 9 10 10 10
9 8 8 8 8 8 8 8 8 8 8 8 8 8 8 8 8 8 8 9 9 9 9 8 8 8 8 8 8 8 8 8 8 9 9 9 9 9 9 9 9 10 10
8 8 8 8 8 8 8 8 8 7 7 7 7 7 7 7 8 8 8 8 8 8 8 8 8 8 8 8 8 8 8 8 8 8 8 8 8 8 8 8 9 9 9
8 7 7 7 7 7 7 7 7 7 7 7 7 7 7 7 7 7 7 7 7 8 8 8 8 7 7 8 8 7 7 7 8 8 8 8 8 8 8 8 8 8 8
7 7 7 7 7 7 7 7 7 6 6 7 7 7 7 7 7 7 7 7 7 7 7 7 7 7 7 7 7 7 7 7 7 7 7 7 7 7 7 8 7 7 8
Wind_Speed
3 4 4 4 4 3 3 3 3 4 4 4 5 5 5 6 6 5 6 9 8 8 8 8 8 8 9 8 8 8 8 7 7 7 8 7 7 7 7 7 6 6 5
3 3 3 4 4 3 3 3 3 3 3 4 4 5 4 4 5 5 5 6 8 7 7 7 8 7 7 7 8 8 7 7 7 7 7 7 7 7 7 7 7 7 7
3 3 3 3 3 3 3 3 3 2 2 3 3 3 3 4 3 4 4 4 5 6 7 7 7 7 7 6 7 8 8 7 7 7 7 7 7 7 7 7 7 7 7
3 3 2 2 3 2 2 2 2 2 2 2 2 2 2 2 3 3 3 3 3 4 6 7 7 7 7 6 6 7 7 7 7 6 6 6 6 6 7 7 7 7 7
3 2 2 2 2 2 2 2 2 2 2 2 2 1 2 2 2 2 2 3 3 3 3 5 5 6 6 7 6 6 6 6 6 6 5 5 6 6 6 7 7 7 7
3 2 1 2 2 1 1 1 2 1 1 1 1 1 1 1 1 2 2 2 3 3 3 3 3 4 5 6 7 6 6 6 5 5 5 5 5 5 5 6 6 6 6
2 2 2 2 2 1 1 1 1 1 1 1 0 0 0 1 1 1 1 1 2 3 3 3 2 2 2 4 5 5 5 5 4 4 4 4 5 4 5 5 5 5 5
2 2 2 1 1 1 1 1 0 1 1 1 1 2 1 1 1 1 0 1 1 2 2 3 3 2 2 2 4 5 5 4 2 2 3 3 4 3 3 4 4 4 4
1 1 1 1 1 1 1 1 1 2 1 1 2 2 2 1 0 1 0 1 1 1 2 2 3 3 3 3 2 4 5 4 2 1 2 3 3 2 2 3 3 3 3
0 0 1 1 1 1 1 2 2 2 2 2 1 2 3 3 2 1 1 0 0 1 1 1 2 3 3 3 3 5 5 5 3 0 1 2 1 1 2 2 3 3 3
0 0 1 1 1 1 2 2 2 2 2 2 2 1 2 2 4 3 2 1 1 1 1 1 1 2 2 3 3 5 5 5 5 2 0 1 1 1 2 2 2 2 2
0 1 1 1 1 1 2 2 2 2 2 3 3 2 2 2 3 3 3 3 2 1 1 0 1 1 1 2 3 5 5 4 5 4 2 1 1 1 2 2 2 2 2
0 0 1 1 1 2 2 1 2 2 2 3 3 3 3 3 3 3 4 3 3 2 2 1 1 1 1 1 1 2 2 3 3 3 2 1 0 1 1 2 2 2 2
1 1 1 1 1 2 2 1 2 2 2 3 3 3 3 3 3 3 4 4 4 3 3 2 1 1 1 2 1 1 1 1 2 2 2 1 1 1 1 2 2 2 2
1 1 1 1 1 1 2 2 2 2 2 3 3 4 3 3 3 4 4 4 5 5 4 3 2 2 2 2 1 2 2 1 1 2 2 1 1 2 2 3 3 4 3
1 1 1 2 1 1 1 1 2 2 2 2 2 3 3 3 3 3 4 4 5 5 4 3 2 2 2 2 2 3 2 1 1 1 2 1 1 1 1 2 2 2 3
1 1 1 1 1 1 1 1 2 2 3 3 3 3 3 3 3 3 3 3 4 4 5 4 3 2 3 3 2 3 3 2 1 2 2 2 2 2 2 2 2 2 3
1 1 1 1 1 1 1 2 2 2 3 3 3 3 3 2 3 3 3 3 3 4 4 4 3 3 3 3 3 2 2 2 2 2 2 3 2 2 2 2 3 3 3
1 1 1 1 1 2 2 2 2 2 3 3 3 3 3 3 4 3 4 4 3 3 3 4 3 3 3 2 3 2 2 2 2 1 3 4 4 4 4 4 3 3 3
2 2 1 1 2 2 2 2 3 3 3 3 3 3 3 3 4 4 4 4 4 3 3 3 3 2 3 2 3 3 2 2 2 2 2 2 3 4 5 5 4 4 4
2 2 2 1 1 2 2 3 3 3 3 3 3 3 3 3 4 4 3 4 4 3 3 3 3 3 2 2 3 3 3 3 3 2 3 2 3 3 3 4 5 4 4
2 1 1 1 1 1 2 4 4 3 3 4 3 3 3 3 3 4 4 4 4 4 4 4 4 4 4 3 3 4 4 3 3 2 3 3 2 2 2 1 1 3 3
2 2 1 1 2 1 1 2 4 4 3 3 3 3 3 3 4 4 4 5 5 4 5 5 5 4 4 4 4 4 4 4 4 2 3 4 3 3 2 1 3 3 3
2 2 2 2 2 1 0 2 4 5 4 3 3 3 3 4 3 4 4 4 4 4 4 5 5 5 4 4 4 5 5 5 5 2 2 4 3 3 3 2 4 3 2
2 2 2 2 2 2 1 2 4 3 3 3 3 3 4 4 3 5 4 4 4 3 2 3 4 4 4 3 3 3 3 4 4 3 2 3 3 4 4 4 3 5 3
3 2 2 3 3 3 1 2 4 3 4 3 3 3 2 3 3 4 4 4 4 4 3 3 4 4 4 3 3 4 4 4 5 4 2 3 3 3 3 3 3 3 3
Wind_Direction
74 73 77 68 62 61 70 70 69 67 61 58 63 64 62 64 62 63 70 67 60 60 62 63 63 59 56 54 53 51 54 56 57 59 65 66 69 84 86 85 96 95 90
72 69 67 62 53 51 52 62 69 66 59 56 57 57 54 56 59 61 67 78 74 63 59 57 56 55 53 49 49 51 53 55 58 65 68 72 76 83 85 84 82 82 82
66 68 55 55 48 45 54 54 64 55 63 67 63 56 55 44 50 56 62 62 76 83 68 57 51 46 48 47 50 52 54 56 60 67 69 71 76 84 89 89 86 85 81
62 60 53 46 44 41 41 48 42 49 62 62 49 39 41 42 36 38 50 63 62 64 79 68 51 44 47 48 49 51 56 60 65 70 71 75 79 84 92 92 90 87 83
53 65 50 35 44 39 40 39 40 31 48 55 50 45 33 29 21 19 42 52 59 61 66 82 72 57 50 48 46 47 53 56 67 75 75 79 87 88 88 88 90 89 84
42 51 53 40 36 36 38 40 51 45 40 32 23 32 28 43 27 15 13 46 54 53 49 47 63 74 64 51 41 40 45 53 65 75 79 83 89 92 91 93 92 90 87
41 45 35 42 30 30 23 29 61 68 48 13 12 15 79 63 50 36 355 9 59 57 53 46 43 39 79 83 45 30 31 47 63 79 86 88 88 94 97 103 102 97 96
52 43 39 41 40 26 8 3 355 304 343 316 300 287 252 181 84 36 20 3 26 50 44 38 38 36 36 56 63 34 17 22 44 89 107 103 101 108 112 117 112 112 107
52 49 43 38 27 336 299 286 264 264 281 297 316 306 297 303 320 141 57 36 41 29 32 28 19 18 33 46 47 43 23 12 13 76 124 112 114 127 136 136 139 136 127
50 11 360 352 335 318 301 278 268 267 268 270 285 312 315 320 287 259 203 177 20 352 357 6 7 11 16 28 41 34 23 16 4 50 139 136 142 157 150 152 150 152 152
242 271 284 287 295 290 293 290 278 268 259 269 271 278 295 290 281 277 271 258 236 268 307 342 357 11 20 15 15 28 24 18 12 357 238 206 202 186 167 161 161 168 168
261 336 314 287 283 286 287 284 268 262 260 261 261 260 267 272 278 275 269 264 262 263 255 252 311 356 8 7 17 36 28 19 16 11 353 299 226 193 184 181 164 173 181
206 336 310 290 296 296 291 285 270 272 266 259 257 261 263 272 279 275 272 270 264 260 246 234 232 263 314 316 359 31 28 11 11 7 353 341 268 163 188 193 183 174 187
221 256 272 289 286 291 288 281 271 270 279 270 265 261 258 262 264 264 263 266 263 251 241 239 221 240 275 275 349 274 292 10 352 350 350 292 232 201 214 220 208 202 205
230 250 262 267 275 272 278 275 272 273 279 277 271 263 258 257 258 263 263 262 266 265 253 245 246 258 262 265 310 267 262 91 316 322 320 299 228 230 241 233 227 219 220
222 245 262 265 268 273 273 274 279 290 281 282 282 273 268 263 261 258 257 256 261 269 266 261 257 256 253 252 255 268 274 155 210 264 294 285 274 267 260 250 235 213 208
210 235 256 266 281 279 280 278 279 284 277 277 271 264 261 267 260 257 255 254 255 259 261 267 263 264 253 256 250 264 264 260 236 182 227 262 262 264 272 265 238 213 202
217 239 248 265 283 284 287 289 288 278 275 278 273 272 272 262 263 264 256 252 252 252 250 258 271 269 263 263 262 257 260 263 264 159 203 230 240 245 244 247 251 226 211
215 238 240 262 275 281 285 283 284 289 286 279 274 273 276 267 261 261 250 250 248 248 245 249 263 273 262 266 266 261 263 281 273 224 203 212 227 232 227 225 230 219 213
207 224 238 244 254 271 280 285 285 283 290 294 288 281 279 280 274 270 255 248 244 238 234 243 253 262 256 256 251 251 259 269 269 272 267 243 218 220 215 211 216 222 223
216 221 230 243 266 275 302 306 291 284 283 288 290 290 297 307 316 295 275 256 244 240 237 237 242 253 261 256 254 253 260 264 250 260 266 255 239 236 218 210 215 226 226
219 224 237 251 263 294 358 327 301 276 273 275 279 284 288 281 294 271 267 270 260 244 240 238 241 250 258 265 269 266 263 260 256 261 266 260 244 237 222 205 147 192 204
214 231 246 267 269 278 18 301 298 285 276 275 277 282 288 299 291 282 247 232 237 245 257 254 250 258 261 263 262 264 263 259 264 263 257 258 249 245 233 158 133 165 186
218 234 241 251 271 287 266 283 287 267 267 271 278 286 290 299 311 303 276 255 249 244 244 250 260 268 276 276 260 261 267 261 256 249 242 254 256 257 246 216 148 156 169
218 236 238 240 247 246 248 286 284 264 262 269 279 288 288 291 332 312 283 267 257 252 234 249 289 298 312 310 290 264 267 257 259 248 230 257 261 261 247 226 188 178 197
215 228 230 239 244 252 237 263 279 264 267 272 278 280 289 300 320 304 275 268 263 266 265 248 249 258 266 254 243 249 255 256 260 257 234 248 258 258 247 231 226 223 223
Height
1537 1537 1537 1537 1537 1536 1536 1536 1536 1536 1535 1535 1535 1535 1535 1534 1534 1533 1533 1532 1531 1530 1530 1529 1528 1528 1527 1526 1525 1524 1523 1522 1521 1520 1519 1519 1518 1518 1518 1519 1520 1521 1522
1538 1538 1538 1538 1538 1537 1537 1537 1537 1536 1536 1536 1536 1535 1535 1536 1535 1535 1534 1533 1532 1531 1530 1529 1529 1529 1528 1527 1526 1525 1523 1523 1522 1521 1520 1520 1519 1520 1520 1520 1521 1522 1522
1539 1539 1539 1539 1538 1538 1538 1538 1537 1537 1536 1536 1536 1536 1536 1536 1536 1536 1535 1534 1533 1532 1531 1530 1530 1529 1528 1527 1526 1525 1524 1523 1523 1522 1521 1521 1520 1521 1521 1522 1522 1523 1523
1540 1539 1539 1539 1539 1538 1538 1538 1538 1537 1537 1537 1537 1537 1537 1536 1536 1536 1536 1535 1534 1533 1532 1531 1530 1530 1529 1528 1527 1526 1525 1524 1523 1523 1522 1522 1522 1522 1522 1523 1523 1524 1524
1540 1540 1539 1539 1539 1538 1538 1538 1538 1538 1537 1537 1537 1537 1536 1536 1536 1536 1536 1536 1535 1533 1533 1532 1531 1530 1529 1529 1528 1527 1526 1525 1524 1523 1523 1523 1523 1523 1523 1524 1524 1524 1525
1540 1540 1539 1539 1539 1539 1538 1538 1538 1537 1537 1537 1537 1537 1536 1536 1536 1536 1536 1535 1535 1534 1533 1532 1532 1531 1529 1529 1528 1527 1526 1525 1524 1524 1524 1524 1524 1524 1524 1524 1525 1525 1525
1540 1539 1539 1539 1539 1539 1538 1538 1538 1538 1537 1537 1537 1537 1536 1536 1536 1535 1535 1535 1535 1534 1533 1532 1532 1531 1530 1529 1528 1527 1526 1525 1524 1524 1524 1524 1524 1524 1524 1525 1525 1525 1525
1539 1539 1539 1539 1538 1538 1538 1538 1537 1537 1537 1537 1537 1537 1536 1537 1534 1535 1534 1534 1534 1534 1533 1532 1531 1531 1530 1529 1528 1527 1526 1525 1524 1524 1524 1524 1524 1524 1525 1525 1525 1525 1525
1539 1538 1539 1538 1538 1538 1538 1537 1537 1536 1537 1536 1536 1537 1536 1535 1535 1534 1534 1534 1533 1533 1532 1532 1531 1530 1530 1529 1528 1527 1525 1525 1524 1524 1524 1524 1524 1524 1525 1525 1525 1525 1525
1538 1538 1538 1537 1537 1537 1537 1536 1536 1536 1536 1536 1535 1535 1536 1535 1535 1534 1533 1533 1532 1532 1531 1531 1530 1529 1529 1528 1527 1526 1525 1524 1524 1524 1524 1524 1524 1524 1524 1524 1524 1525 1525
1537 1537 1537 1536 1536 1536 1535 1535 1535 1535 1534 1535 1534 1534 1533 1533 1533 1533 1532 1532 1531 1531 1530 1529 1529 1528 1527 1527 1526 1525 1524 1523 1523 1523 1523 1523 1523 1524 1524 1524 1524 1524 1524
1536 1536 1535 1535 1535 1534 1534 1533 1533 1533 1533 1533 1533 1532 1532 1532 1532 1531 1531 1530 1529 1529 1528 1528 1527 1526 1526 1525 1525 1524 1523 1523 1522 1522 1522 1522 1523 1523 1523 1523 1523 1523 1524
1535 1534 1534 1534 1533 1533 1532 1532 1532 1531 1531 1531 1531 1530 1530 1530 1530 1530 1529 1528 1528 1527 1526 1526 1525 1525 1524 1524 1523 1523 1522 1522 1521 1521 1521 1521 1521 1521 1521 1522 1522 1522 1522
1533 1533 1532 1532 1531 1531 1531 1530 1530 1529 1529 1529 1529 1528 1528 1527 1527 1527 1527 1527 1526 1526 1525 1524 1523 1523 1522 1522 1521 1521 1520 1520 1520 1519 1519 1519 1519 1520 1520 1520 1520 1520 1521
1531 1531 1531 1530 1530 1529 1529 1528 1528 1527 1527 1527 1526 1526 1525 1525 1525 1524 1524 1524 1525 1524 1523 1522 1522 1521 1520 1520 1519 1519 1519 1518 1517 1517 1517 1517 1517 1518 1518 1518 1518 1518 1519
1529 1529 1529 1528 1528 1527 1527 1526 1526 1525 1525 1524 1523 1523 1523 1522 1522 1521 1521 1521 1521 1522 1521 1520 1519 1519 1518 1518 1517 1517 1517 1516 1515 1515 1515 1515 1515 1516 1516 1516 1516 1516 1517
1527 1527 1526 1526 1525 1525 1524 1524 1523 1522 1522 1521 1521 1520 1520 1519 1519 1518 1518 1518 1518 1518 1518 1517 1517 1516 1516 1515 1515 1514 1514 1514 1513 1512 1512 1512 1513 1513 1513 1513 1514 1514 1515
1524 1524 1524 1524 1523 1523 1522 1521 1521 1520 1519 1518 1518 1517 1517 1516 1516 1515 1515 1515 1515 1515 1515 1514 1514 1514 1514 1513 1513 1512 1512 1512 1511 1510 1510 1510 1510 1510 1511 1511 1512 1512 1513
1521 1521 1521 1521 1520 1520 1519 1519 1518 1517 1516 1516 1515 1515 1514 1514 1513 1512 1512 1512 1512 1512 1512 1512 1511 1511 1511 1510 1510 1510 1510 1509 1509 1508 1508 1508 1507 1507 1508 1508 1509 1509 1510
1518 1518 1518 1518 1518 1517 1517 1516 1516 1515 1514 1513 1512 1512 1511 1511 1510 1510 1509 1509 1509 1509 1509 1509 1509 1508 1508 1507 1508 1508 1507 1506 1506 1506 1505 1505 1505 1505 1505 1505 1506 1506 1507
1514 1515 1515 1515 1515 1514 1514 1513 1513 1512 1511 1510 1510 1509 1509 1508 1507 1507 1506 1506 1506 1506 1506 1506 1506 1506 1505 1505 1505 1505 1504 1504 1504 1503 1503 1503 1503 1502 1502 1502 1502 1503 1503
1511 1512 1512 1512 1511 1511 1510 1510 1509 1509 1508 1508 1507 1506 1506 1505 1504 1503 1503 1503 1503 1503 1503 1503 1503 1503 1503 1502 1502 1502 1502 1502 1502 1502 1501 1501 1500 1500 1500 1499 1499 1499 1500
1508 1508 1508 1508 1508 1508 1507 1507 1506 1506 1505 1505 1504 1503 1502 1502 1501 1501 1500 1500 1500 1499 1500 1500 1500 1500 1500 1500 1499 1499 1499 1499 1499 1498 1498 1498 1498 1497 1497 1496 1496 1496 1497
1505 1505 1505 1505 1505 1505 1504 1504 1503 1503 1502 1502 1501 1500 1500 1499 1498 1497 1497 1497 1496 1496 1496 1496 1497 1497 1497 1497 1497 1497 1496 1496 1496 1496 1495 1496 1495 1495 1494 1494 1493 1493 1494
1502 1502 1502 1502 1502 1502 1502 1501 1500 1500 1499 1499 1498 1497 1496 1496 1495 1494 1494 1494 1493 1493 1493 1493 1493 1493 1493 1493 1493 1493 1493 1493 1493 1493 1493 1493 1493 1492 1491 1491 1491 1491 1491
1499 1499 1499 1499 1499 1499 1499 1498 1497 1497 1496 1496 1495 1494 1493 1492 1492 1491 1491 1491 1490 1490 1490 1489 1489 1489 1489 1489 1489 1489 1490 1490 1490 1490 1489 1489 1489 1489 1489 1489 1488 1488 1488